Regional Weather Roundup
Issued by NWS

Home | Current Version | Previous Version | Text Only | Print | Product List | Glossary Off
Versions: 1 2 3 4 5 6 7 8 9 10 11 12 13 14 15 16 17 18 19 20 21 22 23 24 25 26 27 28 29 30 31 32 33 34 35 36 37 38 39 40 41 42 43 44 45 46 47 48 49 50

000
ASUS43 KMPX 291401
RWRMN
WEATHER ROUNDUP FOR MINNESOTA
NATIONAL WEATHER SERVICE TWIN CITIES/CHANHASSEN MN
900 AM CDT WED OCT 29 2014


NOTE: "FAIR" INDICATES FEW OR NO CLOUDS BELOW 12,000 FEET WITH NO
SIGNIFICANT WEATHER AND/OR OBSTRUCTIONS TO VISIBILITY. N/A MEANS
CURRENT SKY AND/OR WEATHER CONDITIONS ARE NOT AVAILABLE.

MNZ060>063-068>070-291500-
   Twin Cities Metro

CITY           SKY/WX    TMP DP  RH WIND       PRES   REMARKS
TWIN CITIES    CLOUDY    38  30  73 NW12      30.14R
ST PAUL        CLOUDY    39  31  72 NW9       30.14R
CRYSTAL        CLOUDY    39  30  70 NW10      30.12R
BLAINE         CLOUDY    39  34  81 MISG        N/A
LAKEVILLE      CLOUDY    36  30  80 W8        30.13R
EDEN PRAIRIE   CLOUDY    38  31  76 NW9       30.13R
SOUTH ST PAUL  CLOUDY    39  31  72 NW8       30.13R
LAKE ELMO      CLOUDY    37  32  81 NW8       30.12R
$$
MNZ001>005-007-008-013>017-022>024-027-028-291500-
   Northwest Minnesota

CITY           SKY/WX    TMP DP  RH WIND       PRES   REMARKS
BEMIDJI        CLOUDY    32  31  96 W7        30.07S WCI  26
HALLOCK        PTCLDY    32  28  86 CALM      30.09F
ROSEAU         CLOUDY    34  28  80 W7        30.08R HAZE    WCI  28
WARROAD        CLOUDY    34  28  80 W5        30.07S FOG     WCI  30
THIEF RVR FALL CLOUDY    32  28  86 W6        30.10R WCI  26
CROOKSTON      CLOUDY    34  30  86 CALM      30.13R
FOSSTON        CLOUDY    30  28  93 W6        30.10R WCI  24
DETROIT LAKES  MIX PCPN  32  32 100 NW6       30.12R WCI  26
MOORHEAD       CLOUDY    37  32  81 W5        30.15R
PARK RAPIDS    CLOUDY    33  31  92 W6        30.09S WCI  28
MAHNOMEN       CLOUDY    32  29  90 W7        30.11R WCI  26
$$
MNZ006-009>011-018-025>026-291500-
   North Central Minnesota

CITY           SKY/WX    TMP DP  RH WIND       PRES   REMARKS
BAUDETTE       CLOUDY    34  33  96 VRB5      30.05R WCI  30
FLAG ISLAND    CLOUDY    34  32  93 W9        30.05R WCI  26
INTL FALLS     CLOUDY    35  33  92 W3        30.03S
WASKISH        CLOUDY    34  34 100 CALM      30.07R
BIG FORK       CLOUDY    34  34 100 W3        30.06R FOG
LONGVILLE      CLOUDY    34  32  93 W3        30.09R
GRAND RAPIDS   CLOUDY    36  30  80 NW9       30.06R
CRANE LAKE     CLOUDY    34  34 100 CALM      30.05R FOG
ORR            CLOUDY    34  32  93 NW6       30.02R WCI  29
COOK             N/A     34  34 100 W5        30.04R FOG     WCI  30
WALKER         CLOUDY    31  29  94 W6        30.09R WCI  25
$$
MNZ012-019>021-037-291500-
   Northeast Minnesota

CITY           SKY/WX    TMP DP  RH WIND       PRES   REMARKS
DULUTH         PTSUNNY   36  32  85 NW12      30.02R
ELY            CLOUDY    34  32  93 NW6       30.02R WCI  29
HIBBING        CLOUDY    34  31  88 NW8       30.05R WCI  27
EVELETH        CLOUDY    34  34 100 W7        30.04R FOG     WCI  28
DULUTH HARBOR  CLOUDY    39  34  81 NW5       30.06R
TWO HARBORS    SUNNY     39  27  60 NW6       30.00R
SILVER BAY     SUNNY     39  34  81 W7        29.99R
GRAND MARAIS     N/A     40  31  70 VRB3      29.99R
G MARAIS ARPRT LGT SNOW  32  28  86 W5        29.96R WCI  27
$$
MNZ029>031-032-039>041-046>048-054>057-064-291500-
   West Central Minnesota

CITY           SKY/WX    TMP DP  RH WIND       PRES   REMARKS
FERGUS FALLS   CLOUDY    34  27  75 NW3       30.16R
WHEATON        CLOUDY    34  27  75 W5        30.18R WCI  30
MORRIS         CLOUDY    36  28  75 NW8       30.15R
ALEXANDRIA     CLOUDY    34  29  82 NW12      30.14R WCI  25
ELBOW LAKE     CLOUDY    33  29  84 NW6       30.14R WCI  28
WADENA         CLOUDY    32  28  86 W5        30.11R WCI  27
GLENWOOD       CLOUDY    34  30  86 NW9       30.14R WCI  26
APPLETON       CLOUDY    37  28  70 N7        30.17R
BENSON         CLOUDY    36  28  75 N7        30.17R
ORTONVILLE     CLOUDY    36  27  69 NW7       30.17R
MADISON        CLOUDY    39  32  75 NW8       30.17R
WILLMAR        CLOUDY    36  28  75 NW10      30.17R
$$
MNZ033>034-036-042>043-049>051-058-059-291500-
   Central Minnesota

CITY           SKY/WX    TMP DP  RH WIND       PRES   REMARKS
ST CLOUD       CLOUDY    37  30  75 NW8       30.14R
SAUK CENTRE    CLOUDY    35  30  83 NW6       30.14R WCI  29
PAYNESVILLE    CLOUDY    33  29  88 W7        30.15R WCI  26
AITKIN         CLOUDY    37  34  87 CALM      30.08R HAZE
PINE RIVER     CLOUDY    34  30  86 W6        30.14R FOG     WCI  29
BRAINERD       CLOUDY    34  30  85 N8        30.11R WCI  27
STAPLES        CLOUDY    32  30  93 NW8       30.11R WCI  25
LONG PRAIRIE   CLOUDY    32  30  93 NW3       30.13R
LITTLE FALLS   CLOUDY    34  30  86 W5        30.13R WCI  30
LITCHFIELD     CLOUDY    37  32  81 NW9       30.15R
BUFFALO        CLOUDY    37  30  78 NW8       30.15R
MAPLE LAKE     CLOUDY    37  32  83 NW6       30.15R
$$
MNZ037-044-045-052-053-291500-
   East Central Minnesota

CITY           SKY/WX    TMP DP  RH WIND       PRES   REMARKS
PRINCETON      CLOUDY    37  32  81 NW6       30.13R
MORA           CLOUDY    36  34  93 W3        30.11R
CAMBRIDGE      MOSUNNY   39  30  70 W7        30.10R
RUSH CITY      SUNNY     35  33  90 W3        30.11R
MOOSE LAKE     PTSUNNY   34  32  93 NW6       30.06R WCI  29
HINCKLEY       FAIR      34  34 100 CALM      30.10R
CLOQUET        CLOUDY    36  34  93 NW6       30.05R
MCGREGOR       CLOUDY    36  34  93 W5        30.08R
$$
MNZ071>073-080-081-089-090-097-098-291500-
   Southwest Minnesota

CITY           SKY/WX    TMP DP  RH WIND       PRES   REMARKS
MONTEVIDEO     CLOUDY    36  30  80 N8        30.18R
GRANITE FALLS  CLOUDY    37  30  77 NW5       30.19R
CANBY          CLOUDY    36  31  83 N5        30.17S
MARSHALL       CLOUDY    36  27  69 N10       30.16R
REDWOOD FALLS  CLOUDY    37  28  70 N10       30.18R
OLIVIA         CLOUDY    36  32  87 NW8       30.16R
PIPESTONE      CLEAR     30  28  93 CALM      30.16R
WINDOM         CLOUDY    37  30  75 NW13      30.17R
WORTHINGTON    SUNNY     32  28  86 NW7       30.19R WCI  26
JACKSON        CLOUDY    37  30  75 NW10      30.17R
TRACY          CLOUDY    37  30  75 NW6       30.17R
SLAYTON        CLEAR     34  31  88 CALM      30.17R
$$
MNZ065>067-074>077-082>085-091>093-291500-
   South Central Minnesota

CITY           SKY/WX    TMP DP  RH WIND       PRES   REMARKS
MANKATO        CLOUDY    36  27  69 NW10      30.16R
NEW ULM        PTSUNNY   36  30  80 NW8       30.17R
ST JAMES       CLOUDY    39  30  70 NW8       30.18R
FAIRMONT       CLOUDY    39  27  60 NW13      30.16R
GLENCOE        CLOUDY    38  32  79 NW7       30.15R
FARIBAULT      CLOUDY    37  30  75 NW9       30.15R
OWATONNA       SUNNY     36  30  80 NW6       30.14R
WASECA         CLOUDY    36  28  75 NW8       30.16R
ALBERT LEA     PTSUNNY   36  30  80 NW9       30.14R
$$
MNZ078>079-086>088-094>096-291500-
   Southeast Minnesota

CITY           SKY/WX    TMP DP  RH WIND       PRES   REMARKS
ROCHESTER      CLOUDY    36  30  79 NW12      30.12R
RED WING       CLOUDY    39  30  70 NW7       30.11R
STANTON        CLOUDY    38  31  76 W8        30.12R
DODGE CENTER   CLOUDY    36  30  80 NW9       30.12R
WINONA         CLOUDY    41  32  70 N7G16     30.11R
AUSTIN         CLOUDY    36  30  80 NW9       30.13R
PRESTON        CLOUDY    36  30  81 NW13      30.11R
$$
ABBREVIATIONS USED IN REMARKS
   TC - TEMPERATURES IN CELSIUS
  WCI - WIND CHILL INDEX
   HX - HEAT INDEX
  VSB - VISIBILITY
$$



USA.gov is the U.S. government's official web portal to all federal, state and local government web resources and services.